Location: Waco, TX
(31.5480°N, 97.1670°W)
Time: 00:51:25
(UTC-06:00)

ISS - Pass Details

Date: 13 January 2018
Orbit: 402 x 407 km, 51.6° (Epoch: 21 January)

Event Time Altitude Azimuth Distance (km) Brightness Sun altitude
Rises 22:50:33 0° 213° (SSW) 2,297 - -64.0°
Reaches altitude 10° 22:52:39 10° 208° (SSW) 1,442 - -64.5°
Maximum altitude 22:55:47 49° 132° (SE) 524 - -65.1°
Drops below altitude 10° 22:58:57 10° 56° (NE) 1,452 - -65.7°
Sets 23:01:04 0° 51° (NE) 2,315 - -66.2°
